Wind_Speed
18 24 27 29 33 33 32 32 31 31 30 28 27 26 25 26 29 32 29 30 29 27 26 25 26 26 26 26 26 26 27 26 27 28 28 25 25 24 24 25 24 25 24
22 16 26 27 32 31 32 31 31 31 30 28 27 26 27 30 33 31 30 30 29 27 25 25 26 25 25 26 26 25 22 23 28 30 28 25 24 23 24 24 23 23 24
31 10 22 30 32 32 32 32 32 30 29 28 27 28 30 34 33 31 30 30 29 27 25 25 24 24 24 24 24 22 18 14 10 15 25 23 24 21 21 23 23 21 21
12 20 20 27 33 33 32 32 31 30 30 28 29 31 32 35 34 32 31 30 29 28 25 24 22 23 23 23 24 21 18 24 29 27 26 22 20 22 22 22 21 22 21
29 27 25 29 31 35 33 33 32 31 30 30 32 32 33 34 35 31 30 30 29 27 24 23 21 22 21 21 21 17 15 19 23 18 22 22 21 21 20 21 21 21 21
24 16 23 30 35 39 35 33 32 32 31 31 31 30 29 31 34 31 30 29 28 26 23 22 21 20 19 18 16 15 17 17 27 23 21 20 22 19 20 21 20 21 20
24 13 15 11 32 38 39 37 35 34 34 31 31 29 28 30 33 31 30 29 27 25 23 22 19 18 17 17 15 16 21 26 22 21 19 20 20 19 20 20 21 21 20
29 21 22 10 34 25 40 40 37 37 34 32 30 30 32 34 33 31 29 28 26 24 22 20 18 16 16 17 15 16 16 18 19 18 16 19 17 17 18 19 20 20 20
28 26 22 26 25 38 38 34 28 36 34 33 32 32 35 37 34 30 27 27 26 23 21 19 17 15 15 17 17 17 16 17 21 21 19 17 16 16 16 18 18 19 19
19 18 26 28 29 23 28 30 19 24 30 32 32 34 33 32 30 27 26 26 24 21 19 18 15 14 15 16 17 12 13 15 17 13 12 15 13 14 14 15 16 16 17
21 22 32 32 29 29 27 29 29 15 23 27 29 29 31 29 26 24 25 24 22 20 17 16 13 13 15 16 15 12 12 13 14 14 12 12 11 11 12 13 14 15 15
19 18 21 23 27 31 29 32 34 26 27 25 29 29 29 29 23 20 23 22 20 17 16 16 13 11 9 9 10 9 10 10 9 8 11 13 10 9 9 11 12 13 12
17 20 25 29 31 26 27 31 30 31 25 28 28 25 30 23 19 21 20 19 18 16 17 14 9 6 6 5 6 9 7 7 10 9 10 10 10 9 8 7 8 9 10
21 21 26 31 29 26 28 27 27 27 23 30 19 27 25 22 18 20 16 15 15 11 13 9 8 7 6 5 7 8 7 8 8 5 5 10 11 9 7 7 6 5 5
19 20 23 23 21 28 31 27 25 22 29 20 20 19 21 21 16 18 15 13 13 12 9 8 7 8 7 6 5 6 6 7 8 5 3 8 11 10 6 5 4 3 1
19 23 22 22 25 33 34 25 27 22 21 19 18 18 18 20 16 17 18 15 15 15 11 10 8 8 9 5 6 5 6 4 5 4 6 7 10 12 9 6 4 3 1
20 25 22 16 27 26 24 31 26 23 20 17 17 18 17 16 17 14 16 15 13 11 12 11 12 9 8 9 7 6 3 5 3 4 2 3 6 11 10 9 9 8 9
25 23 21 19 27 27 26 23 19 19 20 19 19 19 17 17 17 15 18 16 14 13 14 11 12 10 11 11 10 6 5 4 4 3 2 6 7 9 14 10 7 6 9
23 23 24 25 32 30 29 33 24 26 20 19 18 18 19 20 18 20 17 19 17 15 14 13 12 13 11 9 8 8 7 6 7 5 7 8 5 4 6 7 5 6 8
28 34 33 36 35 28 28 22 18 20 19 19 21 21 21 24 20 20 18 17 18 18 17 18 14 12 10 10 12 11 9 9 8 8 10 11 10 11 8 7 3 9 6
34 35 34 32 28 26 26 21 21 23 24 22 23 24 27 25 25 22 18 18 21 20 20 18 15 13 13 8 7 9 13 17 14 11 12 14 13 13 11 13 10 6 5
34 35 31 28 28 26 27 24 23 22 24 24 24 25 25 24 22 23 22 21 23 22 21 19 19 16 16 15 10 8 1 6 13 14 14 17 15 15 12 8 11 9 9
31 30 30 30 29 29 27 28 26 26 26 27 27 24 25 23 21 22 21 21 22 22 21 23 24 22 22 19 18 6 2 3 3 11 23 17 13 12 12 13 12 10 9
33 34 33 34 34 33 29 27 27 22 20 22 23 26 24 24 22 20 22 23 22 23 22 22 26 29 24 20 18 14 8 2 2 3 1 10 20 19 19 18 18 14 10
30 35 33 31 34 33 33 27 27 23 23 24 24 22 22 22 18 20 19 22 23 22 27 21 26 28 25 22 21 17 10 7 8 9 3 11 9 20 23 21 21 17 11
32 31 34 30 28 28 32 32 27 27 24 20 21 21 21 19 19 20 21 26 29 29 28 26 23 23 25 17 13 16 12 6 3 8 2 9 13 15 12 11 16 14 12
Wind_Direction
130 150 152 159 156 154 153 152 152 148 144 139 134 128 124 121 117 116 117 118 114 109 103 97 93 91 89 89 90 88 87 88 85 80 76 68 66 63 65 69 62 60 58
17 151 156 161 159 157 155 154 153 150 145 140 134 128 126 123 119 121 122 117 113 107 102 98 96 93 93 93 91 91 91 92 84 73 71 66 64 64 62 62 61 60 62
263 220 166 164 164 161 159 157 155 151 146 140 135 132 130 128 127 126 124 119 111 107 103 99 95 96 94 93 95 96 91 85 86 73 71 67 65 62 62 61 62 62 61
222 203 176 170 166 164 162 159 157 151 146 140 137 135 134 134 131 125 126 119 113 109 104 100 96 97 95 92 98 94 82 69 72 78 73 70 66 65 64 62 63 65 65
150 178 174 167 167 168 166 160 151 147 143 139 137 137 137 137 133 127 126 121 114 109 105 103 102 99 95 98 103 98 86 78 79 80 78 73 71 69 70 69 69 67 66
150 175 181 169 171 169 163 153 149 146 139 136 135 134 136 138 135 130 127 123 118 113 110 107 104 99 94 99 102 77 60 95 97 82 77 73 72 70 69 71 69 67 68
147 147 145 90 165 166 158 150 142 139 134 132 132 135 138 139 137 132 130 128 126 119 114 110 105 98 94 96 101 81 74 88 95 90 79 74 73 71 72 71 70 67 67
134 127 132 84 30 144 144 134 134 130 128 129 133 137 135 135 138 136 135 133 128 122 117 113 106 97 93 93 104 89 71 80 95 94 86 80 75 73 72 71 71 71 70
125 130 138 129 100 60 72 99 130 122 131 135 138 139 138 138 140 141 140 135 130 127 121 119 108 104 98 93 101 93 79 85 94 94 89 86 80 78 75 73 70 69 69
144 159 145 144 135 122 105 97 96 120 135 141 142 140 138 138 141 142 138 135 134 128 128 116 111 107 100 99 100 85 69 62 97 102 94 96 88 83 80 80 77 74 74
136 137 141 137 141 148 151 132 131 135 135 139 137 137 137 133 128 136 141 138 134 133 125 114 109 104 92 91 84 70 62 77 91 99 93 108 103 96 93 91 88 79 75
107 128 141 145 139 140 146 158 153 149 139 147 141 137 131 122 132 145 143 140 138 136 126 109 101 100 87 66 59 68 95 68 71 97 109 128 121 112 101 95 90 82 79
108 113 126 142 151 148 151 147 147 152 158 149 140 139 137 134 138 151 145 147 143 141 130 118 105 85 71 117 117 105 83 85 86 104 118 138 137 127 117 108 102 95 87
120 116 132 139 140 145 140 152 164 154 155 149 157 144 147 138 154 159 151 154 150 143 145 111 131 156 134 123 99 94 111 103 96 115 100 152 148 139 145 128 117 107 98
121 133 145 144 139 150 147 153 162 158 156 154 145 147 146 150 155 157 163 173 164 175 154 168 184 135 134 115 109 94 71 83 91 154 70 152 158 155 140 143 133 126 108
132 145 153 152 143 156 150 169 168 163 155 157 152 160 145 156 166 169 183 181 183 181 179 186 166 166 154 163 149 141 124 107 139 79 134 130 165 168 164 163 161 159 199
150 154 151 159 159 163 165 163 171 156 156 161 163 164 158 168 178 182 187 195 192 187 189 193 175 179 180 180 165 158 164 130 135 131 213 192 181 209 231 250 240 257 272
147 164 163 157 165 166 160 167 156 167 170 177 178 181 174 182 191 196 189 198 197 199 183 201 187 187 199 197 185 171 151 166 182 194 197 184 191 204 226 230 240 278 299
161 167 161 161 164 174 166 177 182 183 183 183 184 184 196 194 197 195 199 200 191 190 191 199 202 207 207 202 206 191 187 189 215 212 197 229 220 187 182 230 246 317 290
161 161 164 169 175 176 178 176 177 179 188 192 193 199 206 202 199 198 204 198 206 199 204 201 207 210 219 214 233 196 199 198 218 219 218 223 234 229 233 255 285 307 266
170 175 181 185 183 173 176 180 187 181 192 198 202 203 202 196 197 201 209 206 209 207 210 210 209 201 218 225 217 249 230 221 209 219 226 225 226 232 243 229 264 258 323
182 177 183 178 178 182 178 190 193 191 196 205 201 205 203 202 204 208 213 217 215 207 215 206 204 202 209 212 205 242 287 171 213 228 221 226 227 235 243 257 244 244 270
173 179 185 184 189 194 193 190 198 200 200 200 206 210 201 205 204 216 217 218 216 211 214 212 203 202 203 202 208 211 232 209 173 227 222 220 222 223 235 243 246 266 251
179 186 191 188 190 197 207 197 195 202 202 198 200 204 207 207 209 218 224 222 223 219 209 218 222 215 208 199 191 209 213 116 132 301 301 235 226 222 229 245 244 240 254
190 189 199 201 196 197 202 217 198 197 206 211 207 208 201 184 198 221 233 227 229 223 221 224 221 219 227 228 193 171 182 197 230 249 253 272 277 227 236 239 229 232 223
196 194 197 207 206 210 200 202 220 202 204 209 202 203 194 193 212 219 227 227 222 236 232 226 224 228 217 235 200 179 172 171 198 258 313 292 272 275 280 267 221 229 234
Height
757 758 756 756 759 763 769 772 777 781 786 790 795 798 802 806 810 813 817 820 823 827 829 831 831 832 834 837 839 840 841 843 844 844 846 848 847 848 848 847 848 847 847
766 770 762 762 763 768 771 775 780 783 787 792 797 801 805 810 813 817 821 824 827 830 833 834 835 837 839 840 841 843 845 846 847 847 848 850 851 851 853 851 852 852 851
752 773 769 764 766 771 774 777 782 786 789 794 798 803 807 813 817 820 825 827 831 833 837 838 839 841 843 844 845 846 849 849 849 850 850 853 854 855 855 854 855 855 855
746 773 772 766 766 773 777 780 784 788 791 796 800 805 810 815 820 824 827 830 834 836 839 842 845 845 846 847 847 848 850 851 851 853 853 855 857 857 858 858 858 858 858
753 769 765 766 769 773 777 781 786 789 794 798 803 808 812 818 823 827 830 833 837 839 843 845 848 848 849 851 850 851 852 852 854 853 857 859 859 860 860 860 861 860 861
759 765 765 768 766 769 774 781 786 790 796 802 807 812 816 821 825 829 833 836 840 843 845 848 851 851 852 853 853 853 853 855 857 857 860 862 862 863 862 862 863 862 863
760 761 766 768 767 769 772 777 785 791 797 805 811 816 820 823 829 832 836 839 843 845 847 850 853 854 855 855 855 856 855 856 857 859 863 864 864 866 865 864 863 866 866
757 764 764 766 747 768 769 774 784 791 798 806 814 820 823 825 831 836 838 841 845 847 849 852 854 856 857 857 858 858 858 858 859 861 864 867 867 868 868 868 867 867 867
763 761 764 759 770 762 776 779 796 792 800 806 815 822 825 826 833 838 840 842 846 849 851 853 854 857 860 860 861 861 861 862 863 864 866 869 870 870 871 870 871 871 872
766 770 771 763 762 779 794 793 799 803 804 810 816 822 827 832 836 841 844 845 848 851 855 854 856 859 861 862 862 864 863 864 864 865 867 871 873 873 874 873 874 874 872
770 771 771 771 773 776 785 795 799 814 813 819 822 827 829 834 841 845 847 847 850 854 855 857 859 860 862 864 864 866 866 865 866 866 869 873 875 876 876 875 874 875 876
774 774 774 778 782 791 799 802 804 810 819 823 826 829 833 836 841 848 850 851 853 856 858 859 862 862 864 865 866 867 868 868 867 867 870 873 875 878 879 879 876 876 878
776 779 779 782 785 794 799 805 808 814 821 825 831 833 834 837 844 850 852 854 855 858 858 860 862 864 866 866 867 868 868 869 869 868 870 873 876 878 880 881 880 878 879
780 783 785 788 792 796 801 808 811 816 823 828 833 833 836 836 846 851 853 856 857 859 860 861 863 865 867 868 867 867 868 868 870 869 870 874 876 877 880 879 879 881 881
783 787 790 793 797 799 805 813 816 821 825 830 832 836 835 842 846 851 855 856 857 859 861 863 864 865 867 867 869 869 869 870 871 871 871 873 875 877 879 880 881 881 881
786 791 794 798 801 806 810 816 820 823 826 831 834 838 839 843 846 852 855 857 857 857 860 862 864 864 865 867 868 869 869 871 871 871 870 871 875 877 879 880 880 880 882
788 793 798 802 806 810 812 819 822 825 827 831 835 837 839 843 847 850 853 857 857 858 860 862 863 864 865 865 867 867 868 870 871 871 873 871 875 876 878 878 877 877 877
792 796 799 803 807 811 815 818 820 824 828 832 835 837 839 843 845 849 851 854 856 857 858 861 862 862 865 865 865 866 867 868 872 872 873 874 872 875 877 876 877 876 875
790 794 800 804 807 810 815 819 821 824 827 830 832 834 838 841 843 847 850 851 853 854 857 859 862 862 864 864 865 865 866 867 870 870 870 874 873 876 875 876 875 873 872
788 793 798 802 805 809 813 816 819 820 825 827 830 832 835 839 842 844 846 848 850 852 854 856 858 859 862 863 864 863 864 866 868 867 867 871 873 873 874 873 873 871 871
786 790 796 800 803 806 809 813 815 818 823 825 827 830 831 835 837 840 842 845 847 850 851 852 854 855 859 861 863 862 862 863 864 864 865 868 868 869 870 871 870 870 868
782 786 790 794 799 803 806 810 813 815 819 821 824 825 827 831 832 837 840 843 842 845 849 847 851 851 855 858 859 858 860 863 861 862 863 863 863 867 868 867 867 867 867
777 782 787 790 795 799 801 805 809 812 814 816 819 821 823 826 828 834 836 840 839 840 843 844 845 847 849 852 854 854 855 857 859 856 859 858 860 863 864 864 864 863 863
772 778 782 786 791 795 797 799 802 804 807 809 811 817 819 821 825 829 834 837 837 837 837 840 843 843 842 845 849 849 851 854 858 858 856 855 854 855 858 858 859 859 858
766 771 776 779 783 787 790 793 795 798 801 804 807 811 814 819 823 829 833 834 834 834 835 836 838 840 842 841 843 845 846 852 856 858 854 851 851 851 851 851 852 853 855
757 763 768 772 776 779 782 785 789 791 794 798 801 806 809 813 817 820 826 825 823 824 830 833 835 838 836 841 844 843 843 847 849 854 854 852 851 850 850 850 848 848 849